Weather in Pukov

Ukraine / Ivano-Frankovsk District     49°23′59″N   24°41′33″E
temp.,
°C
wind,
m/s
gust,
m/s
humid.,
%
clouds,
%
prec.,
mm/h
press.,
hPa
HPBL,
m
8 may, sat
sat800:00+7w3994100 0.0 1009352
03:00+6nw71291100 1.7 10121022
06:00+3wnw81293100 0.5 1014871
09:00+3wnw81493100 0.6 10171174
12:00+5wnw71182100 0.3 10181405
15:00+6wnw7107871 0.7 10201293
18:00+8wnw595934 0.1 10191620
21:00+4wnw36885 0.4 102298
9 may, sun
sun900:00+2wsw11885 0.0 102310
03:00+2wsw22905 0.0 102412
06:00+1sw118790 0.0 102510
09:00+8ssw23715 0.0 1025262
12:00+12s335620 0.0 10241176
15:00+14s355012 0.0 10241848
18:00+15ssw34525 0.0 10221539
21:00+9sse33785 0.0 102426
10 may, mon
mon1000:00+7se237610 0.0 102431
03:00+6se337473 0.0 102445
06:00+5se34785 0.0 102451
09:00+11se7126951 0.0 1024434
12:00+15se811615 0.0 1023807
15:00+17se810576 0.0 1021984
18:00+17se711685 0.0 1020823
21:00+12se513775 0.0 1021378
11 may, tue
tue1100:00+11se6157615 0.0 1022360
03:00+10se615760 0.0 1021387
06:00+8se615775 0.0 1021360
09:00+12se714730 0.0 1020541
12:00+16se911595 0.0 1019826
15:00+18se810552 0.0 10181031
18:00+17se711620 0.0 1017897
21:00+12ese615670 0.0 1017387
12 may, wed
wed1200:00+11ese716690 0.0 1016409
03:00+9ese614880 0.0 1015331
06:00+9ese614952 0.0 1014337
09:00+12ese7118777 0.0 1013588
12:00+15ese79670 0.0 10121189
15:00+16ese78522 0.0 10101464
18:00+15ese6863100 0.0 10081626
21:00+11ese81372100 0.0 1009716